This demonstration page uses our WeatherBlox Daily Observations layout. Learn more.

Left ArrowRight Arrow

Hourly Observations for April 26, 2016

Temp ( °F °C ) Dew Point ( °F °C ) Humidity (%) Winds ( mph kmh ) Pressure ( in mb ) Visibility ( mi km ) Precip ( " mm )
12:51 am 00:51 Clear 57 13.9 4 -15.6 11 11 NW 13 20 29.64 1004 10 16 0.00 0.00
1:51 am 01:51 Clear 55 12.8 5 -15 13 13 NW 13 20 29.63 1004 10 16 0.00 0.00
2:51 am 02:51 Clear 55 12.8 14 -10 20 20 NW 14 22 29.64 1004 10 16 0.00 0.00
3:51 am 03:51 Clear 52 11.1 11 -11.7 19 19 WNW 14 22 29.66 1004 10 16 0.00 0.00
4:51 am 04:51 Cloudy 55 12.8 10 -12.2 16 16 WNW 12 19 29.66 1004 10 16 0.00 0.00
5:51 am 05:51 Partly Cloudy 53 11.7 28 -2.2 38 38 undefined N/A 29.70 1006 10 16 0.00 0.03
7:51 am 07:51 Sunny 59 15 18 -7.8 20 20 NW 16 26 29.73 1007 10 16 0.00 0.00
8:51 am 08:51 Sunny 62 16.7 15 -9.4 16 16 NW 16 26 29.75 1008 10 16 0.00 0.00
9:51 am 09:51 Sunny 64 17.8 14 -10 14 14 NW 18 30 29.76 1008 10 16 0.00 0.00
10:51 am 10:51 Sunny 66 18.9 15 -9.4 14 14 NW 18 30 29.77 1008 10 16 0.00 0.00
11:51 am 11:51 Sunny 69 20.6 16 -8.9 13 13 NW 21 33 29.76 1008 10 16 0.00 0.00
12:51 pm 12:51 Sunny 69 20.6 18 -7.8 14 14 NW 25 41 29.75 1008 10 16 0.00 0.00
1:51 pm 13:51 Sunny 71 21.7 19 -7.2 14 14 WNW 17 28 29.75 1008 10 16 0.00 0.00
2:51 pm 14:51 Sunny 72 22.2 18 -7.8 13 13 WNW 21 33 29.74 1007 10 16 0.00 0.00
3:51 pm 15:51 Sunny 72 22.2 19 -7.2 13 13 NW 16 26 29.74 1007 10 16 0.00 0.00
4:51 pm 16:51 Sunny 71 21.7 20 -6.7 14 14 WNW 18 30 29.75 1007 10 16 0.00 0.00
5:51 pm 17:51 Sunny 68 20 20 -6.7 16 16 NW 23 37 29.76 1008 10 16 0.00 0.00
6:51 pm 18:51 Sunny 66 18.9 20 -6.7 17 17 NW 17 28 29.78 1008 10 16 0.00 0.00
7:51 pm 19:51 Clear 63 17.2 19 -7.2 18 18 NNW 13 20 29.80 1009 10 16 0.00 0.00
8:51 pm 20:51 Clear 62 16.7 21 -6.1 21 21 NW 15 24 29.81 1010 10 16 0.00 0.00
9:51 pm 21:51 Clear 60 15.6 22 -5.6 23 23 NW 9 15 29.83 1010 10 16 0.00 0.00
10:51 pm 22:51 Clear 55 12.8 22 -5.6 28 28 W 10 17 29.83 1010 10 16 0.00 0.00
11:51 pm 23:51 Clear 53 11.7 22 -5.6 30 30 WNW 10 17 29.84 1010 10 16 0.00 0.00

Powered by AerisWeather